Flag for USA

Past Weather in Grand Rapids, Michigan, USA — Yesterday and Last 2 Weeks

Now
77 °F

Partly sunny.


Feels Like: 79 °F
Forecast: 78 / 54 °F
Wind: 8 mph from Southwest

Location: Kent County International Airport
Current Time: Sep 23, 2020 at 3:23:33 pm
Latest Report: Sep 23, 2020 at 1:53 pm
Visibility: 10 mi
Pressure30.02 "Hg
Humidity: 58%
Dew Point: 61 °F
Location of Grand RapidsLocation

Past Weather in Grand Rapids — Graph

°F

Grand Rapids Temperature Yesterday

Maximum temperature yesterday: 77 °F (at 3:53 pm)
Minimum temperature yesterday: 47 °F (at 5:53 am)
Average temperature yesterday: 60 °F

High & Low Weather Summary for the Past Weeks

 TemperatureHumidityPressure
High77 °F (Sep 16, 2:53 pm)100% (Sep 9, 6:53 am)30.51 "Hg (Sep 9, 6:53 am)
Low36 °F (Sep 19, 6:53 am)32% (Sep 19, 5:53 pm)29.88 "Hg (Sep 13, 1:53 am)
Average58 °F77%30.23 "Hg
* Reported Sep 8 1:04 pm — Sep 23 1:53 pm, Grand Rapids. Weather by CustomWeather, © 2020

Note: Actual official high and low records may vary slightly from our data, if they occured in-between our weather recording intervals... More about our weather records

Grand Rapids Weather History for the Previous 24 Hours

Scroll right to see more
 ConditionsComfort  
Time TempWeatherWind HumidityBarometerVisibility
1:53 pm
Wed, Sep 23
77 °FPartly sunny.8 mph58%30.02 "Hg10 mi
12:53 pm76 °FPartly sunny.8 mph58%30.03 "Hg10 mi
11:53 am73 °FScattered clouds.6 mph66%30.05 "Hg10 mi
10:53 am70 °FScattered clouds.7 mph71%30.05 "Hg10 mi
9:53 am65 °FScattered clouds.7 mph85%30.06 "Hg9 mi
8:53 am56 °FFog.3 mph97%30.05 "Hg4 mi
7:53 am50 °FFog.5 mph96%30.05 "Hg4 mi
6:53 am50 °FFog.3 mph96%30.04 "Hg6 mi
5:53 am51 °FClear.No wind92%30.03 "Hg10 mi
4:53 am51 °FClear.No wind89%30.04 "Hg10 mi
3:53 am50 °FClear.3 mph93%30.04 "Hg10 mi
2:53 am53 °FClear.No wind89%30.05 "Hg10 mi
1:53 am53 °FClear.No wind89%30.05 "Hg10 mi
12:53 am53 °FClear.No wind89%30.07 "Hg10 mi
11:53 pm
Tue, Sep 22
54 °FClear.No wind86%30.08 "Hg10 mi
10:53 pm57 °FClear.No wind81%30.08 "Hg10 mi
9:53 pm63 °FClear.3 mph68%30.09 "Hg10 mi
8:53 pm64 °FClear.8 mph68%30.09 "Hg10 mi
7:53 pm66 °FPassing clouds.9 mph63%30.09 "Hg10 mi
6:53 pm71 °FPassing clouds.8 mph55%30.10 "Hg10 mi
5:53 pm74 °FPassing clouds.13 mph50%30.10 "Hg10 mi
4:53 pm75 °FPassing clouds.9 mph47%30.11 "Hg10 mi
3:53 pm77 °FScattered clouds.9 mph47%30.12 "Hg10 mi
Weather by CustomWeather, © 2020

See weather overview